Tracking 29892 objects as of 21-Nov-2024
HD Live streaming from Space Station
objects crossing your sky now

WFOV (USA 332)

Track WFOV (USA 332) now!


NORAD ID: 52940
Int'l Code: 2022-073A
Perigee: 35,786.9 km
Apogee: 35,800.0 km
Inclination: 2.2 °
Period: 1,436.1 minutes
Semi major axis: 42164 km
RCS: Unknown
Launch date: July 1, 2022
Source: United States (US)
Launch site: AIR FORCE EASTERN TEST RANGE (AFETR)
Your satellite tracking list
Your tracking list is empty




NASA's NSSDC Master Catalog

Two Line Element Set (TLE):
1 52940U 22073A   24325.85002852 -.00000360  00000-0  00000-0 0  9990
2 52940   2.2308  86.0213 0001557 104.3548 295.2893  1.00272773  8623
Source of the keplerian elements: AFSPC